When you browse on this site, cookies collect data to enhance your experience and personalize the content and advertising you see.
Visit our Privacy Policy to learn more. By continuing to use the site, you agree to this use of cookies and data.
  • In Czech Republic
  • List of Countries
  • For 7 days
  • Water Temperature
  • Satellite Maps
  • Weather Map
  • Weather Widgets
  • user-avatar
    Login

    Hourly Weather Mihalki

    Today, 19 February, Tuesday

    Time Temperature Precipitation Wind Pressure Humidity
    00:00 -9°C° 0 mm 2 mps 751 mmHg 89%
    01:00 -9°C° 0 mm 2 mps 751 mmHg 89%
    02:00 -9°C° 0 mm 2 mps 750 mmHg 90%
    03:00 -9°C° 0 mm 3 mps 750 mmHg 89%
    04:00 -10°C° 0 mm 4 mps 749 mmHg 88%
    05:00 -10°C° 0 mm 4 mps 748 mmHg 87%
    06:00 -10°C° 0 mm 5 mps 748 mmHg 84%
    07:00 -10°C° 0 mm 5 mps 747 mmHg 81%
    08:00 -8°C° 0 mm 5 mps 747 mmHg 78%
    09:00 -8°C° 0 mm 6 mps 746 mmHg 76%
    10:00 -5°C° 0 mm 6 mps 746 mmHg 74%
    11:00 -4°C° 0 mm 6 mps 745 mmHg 71%
    12:00 -3°C° 0 mm 6 mps 745 mmHg 73%
    13:00 -3°C° 0 mm 6 mps 744 mmHg 74%
    14:00 -2°C° 0 mm 6 mps 744 mmHg 75%
    15:00 -2°C° 0 mm 5 mps 743 mmHg 77%
    16:00 -2°C° 0 mm 5 mps 743 mmHg 78%
    17:00 -4°C° 0 mm 5 mps 742 mmHg 80%
    18:00 -4°C° 0 mm 5 mps 742 mmHg 82%
    19:00 -4°C° 0 mm 5 mps 741 mmHg 84%
    20:00 -5°C° 0 mm 6 mps 741 mmHg 86%
    21:00 -4°C° 0 mm 6 mps 740 mmHg 87%
    22:00 -3°C° 0 mm 6 mps 739 mmHg 88%
    23:00 -3°C° 0 mm 6 mps 738 mmHg 89%

    Tomorrow, 20 February, Wednesday

    Time Temperature Precipitation Wind Pressure Humidity
    00:00 -2°C° 0 mm 6 mps 738 mmHg 89%
    01:00 -2°C° 0 mm 6 mps 737 mmHg 89%
    02:00 -2°C° 0 mm 6 mps 736 mmHg 89%
    03:00 -2°C° 0.1 mm 6 mps 736 mmHg 90%
    04:00 0°C° 0.1 mm 5 mps 735 mmHg 90%
    05:00 0°C° 0.1 mm 5 mps 735 mmHg 91%
    06:00 0°C° 0.1 mm 5 mps 734 mmHg 91%
    07:00 0°C° 0.1 mm 5 mps 734 mmHg 91%
    08:00 0°C° 0.1 mm 5 mps 734 mmHg 91%
    09:00 0°C° 0 mm 5 mps 734 mmHg 92%
    10:00 0°C° 0 mm 5 mps 734 mmHg 93%
    11:00 0°C° 0 mm 5 mps 734 mmHg 94%
    12:00 0°C° 0.1 mm 5 mps 734 mmHg 93%
    13:00 0°C° 0.1 mm 5 mps 734 mmHg 93%
    14:00 0°C° 0.1 mm 5 mps 734 mmHg 92%
    15:00 0°C° 0 mm 4 mps 734 mmHg 92%
    16:00 0°C° 0 mm 4 mps 733 mmHg 91%
    17:00 0°C° 0 mm 4 mps 733 mmHg 91%
    18:00 0°C° 0.1 mm 4 mps 733 mmHg 90%
    19:00 0°C° 0.1 mm 4 mps 733 mmHg 90%
    20:00 0°C° 0.1 mm 5 mps 732 mmHg 90%
    21:00 -1°C° 0.2 mm 4 mps 732 mmHg 90%
    22:00 -1°C° 0.2 mm 4 mps 732 mmHg 90%
    23:00 -1°C° 0.2 mm 4 mps 732 mmHg 90%

    Day after tomorrow, 21 February, Thursday

    Time Temperature Precipitation Wind Pressure Humidity
    00:00 -2°C° 0 mm 4 mps 732 mmHg 90%
    01:00 -2°C° 0 mm 4 mps 732 mmHg 90%
    02:00 -3°C° 0 mm 4 mps 732 mmHg 89%
    03:00 -3°C° 0.2 mm 4 mps 732 mmHg 89%
    04:00 -4°C° 0.2 mm 5 mps 732 mmHg 89%
    05:00 -4°C° 0.2 mm 5 mps 733 mmHg 89%
    06:00 -5°C° 0.2 mm 5 mps 733 mmHg 87%
    07:00 -5°C° 0.2 mm 6 mps 734 mmHg 85%
    08:00 -6°C° 0.2 mm 6 mps 734 mmHg 83%
    09:00 -6°C° 0.2 mm 6 mps 735 mmHg 82%
    10:00 -6°C° 0.2 mm 6 mps 735 mmHg 82%
    11:00 -6°C° 0.2 mm 6 mps 736 mmHg 81%
    12:00 -6°C° 0.2 mm 6 mps 736 mmHg 82%
    13:00 -7°C° 0.2 mm 7 mps 737 mmHg 82%
    14:00 -7°C° 0.2 mm 7 mps 738 mmHg 83%
    15:00 -8°C° 0.2 mm 7 mps 739 mmHg 82%
    16:00 -9°C° 0.2 mm 7 mps 739 mmHg 82%
    17:00 -9°C° 0.2 mm 7 mps 740 mmHg 81%
    18:00 -11°C° 0.1 mm 7 mps 741 mmHg 80%
    19:00 -11°C° 0.1 mm 7 mps 742 mmHg 80%
    20:00 -12°C° 0.1 mm 7 mps 743 mmHg 79%
    21:00 -12°C° 0 mm 6 mps 744 mmHg 78%
    22:00 -12°C° 0 mm 6 mps 745 mmHg 78%
    23:00 -14°C° 0 mm 6 mps 745 mmHg 77%

    22 February, Friday

    Time Temperature Precipitation Wind Pressure Humidity
    00:00 -14°C° 0 mm 6 mps 746 mmHg 77%
    01:00 -15°C° 0 mm 6 mps 747 mmHg 77%
    02:00 -15°C° 0 mm 6 mps 747 mmHg 77%
    03:00 -15°C° 0 mm 6 mps 748 mmHg 77%
    04:00 -16°C° 0 mm 6 mps 748 mmHg 77%
    05:00 -16°C° 0 mm 6 mps 749 mmHg 78%
    06:00 -16°C° 0 mm 6 mps 749 mmHg 76%
    07:00 -16°C° 0 mm 6 mps 750 mmHg 75%
    08:00 -16°C° 0 mm 6 mps 750 mmHg 73%
    09:00 -15°C° 0 mm 6 mps 751 mmHg 72%
    10:00 -14°C° 0 mm 7 mps 751 mmHg 71%
    11:00 -13°C° 0 mm 7 mps 751 mmHg 69%
    12:00 -13°C° 0 mm 7 mps 751 mmHg 70%
    13:00 -12°C° 0 mm 7 mps 751 mmHg 71%
    14:00 -12°C° 0 mm 7 mps 751 mmHg 71%
    15:00 -13°C° 0 mm 7 mps 751 mmHg 72%
    16:00 -12°C° 0 mm 6 mps 752 mmHg 74%
    17:00 -14°C° 0 mm 6 mps 752 mmHg 75%
    18:00 -15°C° 0 mm 6 mps 753 mmHg 75%
    19:00 -15°C° 0 mm 6 mps 753 mmHg 75%
    20:00 -15°C° 0 mm 6 mps 754 mmHg 76%
    21:00 -16°C° 0 mm 6 mps 754 mmHg 77%
    22:00 -16°C° 0 mm 6 mps 755 mmHg 78%
    23:00 -15°C° 0 mm 5 mps 755 mmHg 80%

    23 February, Saturday

    Time Temperature Precipitation Wind Pressure Humidity
    00:00 -15°C° 0 mm 5 mps 756 mmHg 80%
    01:00 -17°C° 0 mm 5 mps 756 mmHg 81%
    02:00 -17°C° 0 mm 5 mps 756 mmHg 82%
    03:00 -17°C° 0 mm 5 mps 757 mmHg 83%
    04:00 -16°C° 0 mm 4 mps 757 mmHg 84%
    05:00 -16°C° 0 mm 4 mps 757 mmHg 85%
    06:00 -16°C° 0 mm 4 mps 757 mmHg 85%
    07:00 -16°C° 0 mm 4 mps 758 mmHg 86%
    08:00 -16°C° 0 mm 4 mps 758 mmHg 87%
    09:00 -16°C° 0 mm 4 mps 758 mmHg 84%
    10:00 -15°C° 0 mm 4 mps 758 mmHg 82%
    11:00 -14°C° 0 mm 4 mps 758 mmHg 80%
    12:00 -12°C° 0 mm 3 mps 758 mmHg 78%
    13:00 -12°C° 0 mm 3 mps 758 mmHg 76%
    14:00 -10°C° 0 mm 3 mps 758 mmHg 73%
    15:00 -12°C° 0 mm 3 mps 758 mmHg 77%
    16:00 -10°C° 0 mm 2 mps 758 mmHg 80%
    17:00 -12°C° 0 mm 2 mps 759 mmHg 84%
    18:00 -12°C° 0 mm 2 mps 759 mmHg 85%
    19:00 -12°C° 0 mm 2 mps 759 mmHg 87%
    20:00 -13°C° 0 mm 2 mps 760 mmHg 88%
    21:00 -13°C° 0 mm 2 mps 760 mmHg 88%
    22:00 -11°C° 0 mm 1 mps 760 mmHg 89%
    23:00 -11°C° 0 mm 1 mps 760 mmHg 89%

    24 February, Sunday

    Time Temperature Precipitation Wind Pressure Humidity
    00:00 -11°C° 0 mm 1 mps 760 mmHg 88%
    01:00 -11°C° 0 mm 1 mps 760 mmHg 87%
    02:00 -11°C° 0 mm 1 mps 761 mmHg 86%
    03:00 -11°C° 0 mm 1 mps 760 mmHg 85%
    04:00 -11°C° 0 mm 1 mps 760 mmHg 84%
    05:00 -13°C° 0 mm 2 mps 760 mmHg 83%
    06:00 -13°C° 0 mm 2 mps 760 mmHg 83%
    07:00 -12°C° 0 mm 2 mps 760 mmHg 83%
    08:00 -12°C° 0 mm 2 mps 761 mmHg 83%
    09:00 -9°C° 0 mm 2 mps 761 mmHg 83%
    10:00 -8°C° 0 mm 2 mps 760 mmHg 83%
    11:00 -7°C° 0 mm 2 mps 760 mmHg 84%
    12:00 -6°C° 0 mm 2 mps 760 mmHg 84%
    13:00 -5°C° 0 mm 2 mps 760 mmHg 85%
    14:00 -5°C° 0 mm 3 mps 759 mmHg 86%
    15:00 -4°C° 0 mm 2 mps 759 mmHg 88%
    16:00 -4°C° 0 mm 2 mps 759 mmHg 90%
    17:00 -5°C° 0 mm 2 mps 759 mmHg 92%
    18:00 -4°C° 0 mm 2 mps 758 mmHg 92%
    19:00 -5°C° 0 mm 3 mps 758 mmHg 93%
    20:00 -5°C° 0 mm 3 mps 758 mmHg 93%
    21:00 -5°C° 0 mm 3 mps 757 mmHg 94%
    22:00 -5°C° 0 mm 3 mps 757 mmHg 94%
    23:00 -5°C° 0 mm 4 mps 756 mmHg 94%
    Show more